Tracking 33165 objects as of 7-Feb-2026
HD Live streaming from Space Station
objects crossing your sky now

STARLINK-36255

Track STARLINK-36255 now!
10-day predictions
STARLINK-36255 is classified as:


NORAD ID: 67102
Int'l Code: 2025-299A
Perigee: 450.1 km
Apogee: 451.8 km
Inclination: 43.0 °
Period: 93.5 minutes
Semi major axis: 6821 km
RCS: Unknown
Launch date: December 15, 2025
Source: United States (US)
Launch site: AIR FORCE EASTERN TEST RANGE (AFETR)
Your satellite tracking list
Your tracking list is empty




NASA's NSSDC Master Catalog

Two Line Element Set (TLE):
1 67102U 25299A   26036.91291210  .00075350  00000-0  17885-2 0  9996
2 67102  43.0026 352.1608 0001299 253.3654 106.7060 15.40781161  8212
Source of the keplerian elements: AFSPC